This demonstration page uses our WeatherBlox Daily Observations layout. Learn more.

Left ArrowRight Arrow

Hourly Observations for June 4, 2021

Temp ( °F °C ) Dew Point ( °F °C ) Humidity (%) Winds ( mph kmh ) Pressure ( in mb ) Visibility ( mi km ) Precip ( " mm )
12:53 am 00:53 Clear 69 20.6 51 10.6 53 53 SW 13 20 29.65 1004 10 16 N/A
1:53 am 01:53 Clear 67 19.4 51 10.6 57 57 SW 14 22 29.64 1004 10 16 N/A
2:53 am 02:53 Clear 66 18.9 52 11.1 61 61 SW 14 22 29.64 1004 10 16 N/A
3:53 am 03:53 Clear 66 18.9 51 10.6 59 59 WSW 10 17 29.65 1004 10 16 N/A
4:51 am 04:51 Clear 66 19 52 11 60 60 SW 14 22 29.64 1004 10 16 N/A
4:53 am 04:53 Clear 66 18.9 52 11.1 61 61 SW 13 20 29.66 1004 10 16 N/A
5:53 am 05:53 Sunny 66 18.9 53 11.7 63 63 SW 15 24 29.67 1005 10 16 N/A
6:53 am 06:53 Partly Cloudy 69 20.6 54 12.2 59 59 SW 20 31 29.71 1006 10 16 N/A
7:53 am 07:53 Sunny 68 20 56 13.3 65 65 WNW 7 11 29.71 1006 10 16 N/A
8:53 am 08:53 Sunny 74 23.3 56 13.3 54 54 WSW 10 17 29.72 1007 10 16 N/A
9:53 am 09:53 Mostly Sunny 80 26.7 57 13.9 45 45 WSW 9 15 29.69 1005 10 16 N/A
10:53 am 10:53 Mostly Sunny 84 28.9 56 13.3 38 38 WSW 15 24 29.69 1005 10 16 N/A
11:53 am 11:53 Sunny 86 30 53 11.7 32 32 WNW 15 24 29.69 1006 10 16 N/A
12:00 pm 12:00 Sunny 84 29 54 12 35 35 W 13 20 29.58 1002 10 16 N/A
12:53 pm 12:53 Partly Cloudy 84 28.9 48 8.9 29 29 WSW 16 26 29.70 1006 10 16 N/A
1:53 pm 13:53 Sunny 84 28.9 46 7.8 27 27 WSW 20 31 29.68 1005 10 16 N/A
2:53 pm 14:53 Sunny 88 31.1 47 8.3 24 24 WSW 16 26 29.65 1004 10 16 N/A
3:53 pm 15:53 Sunny 89 31.7 54 12.2 30 30 WSW 13 20 29.62 1003 10 16 N/A
4:53 pm 16:53 Sunny 91 32.8 49 9.4 24 24 W 23 37 29.60 1002 10 16 N/A
5:53 pm 17:53 Sunny 90 32.2 50 10 25 25 W 14 22 29.58 1002 10 16 N/A
6:53 pm 18:53 Sunny 88 31.1 50 10 27 27 W 10 17 29.56 1001 10 16 N/A
7:53 pm 19:53 Sunny 83 28.3 50 10 32 32 W 9 15 29.56 1001 10 16 N/A
8:53 pm 20:53 Sunny 75 23.9 46 7.8 36 36 WNW 6 9 29.58 1002 10 16 N/A
9:53 pm 21:53 Clear 69 20.6 44 6.7 41 41 SW 3 6 29.60 1002 10 16 N/A
10:53 pm 22:53 Clear 64 17.8 45 7.2 50 50 WSW 7 11 29.60 1002 10 16 N/A
11:53 pm 23:53 Clear 66 18.9 43 6.1 43 43 WSW 12 19 29.60 1002 10 16 N/A

Powered by AerisWeather